sat.trackr.live / text

‹ back to catalog

TACSAT 4

NORAD 37818 · 2011-052A

PAYLOAD ACTIVE UNKNOWN

§ Identity

Operator
Country
US
Launch date
2011-09-27
Launch site
KODAK
Launch vehicle
Mass (kg)
RCS (m²)
6.36

External: N2YO · Heavens-Above · Gunter

§ Orbital elements

Epoch: 2026-09-15T16:54:20.197152Z

Period
233.86 min
Inclination
62.8473°
Eccentricity
0.4628448
Mean motion
6.15746560 rev/d
Perigee alt
376.0 km
Apogee alt
12,015.4 km
Semi-major
12,573.8 km
B*
4.9095e-4
RAAN
57.7712°
Arg perigee
286.5725°
Mean anomaly
28.7829°
Rev number
33,036

§ Raw data

TACSAT 41 37818U 11052A   26258.70440043  .00001259  00000+0  49095-3 0  99972 37818  62.8473  57.7712 4628448 286.5725  28.7829  6.15746560330360

JSON: /api/v1/satellites/37818 · /tle

For live sub-satellite position, see the globe view (requires WebGL).

§ Visibility from observer

Set your observer location to see the next 7 days of passes ≥ 10°. The values pass through the URL so the page stays shareable.

No JS? Fill the form by hand. The geolocation button needs JavaScript.